Regional Weather Roundup
Issued by NWS

Home | Current Version | Previous Version | Graphics & Text | Print | Product List | Glossary On
Versions: 1 2 3 4 5 6 7 8 9 10 11 12 13 14 15 16 17 18 19 20 21 22 23 24 25 26 27 28 29 30 31 32 33 34 35 36 37 38 39 40 41 42 43 44 45 46 47 48 49 50
000
ASUS45 KSLC 191910
RWRUT

UTAH REGIONAL WEATHER ROUNDUP
NATIONAL WEATHER SERVICE SALT LAKE CITY UT
1200 PM MST FRI DEC 19 2014

UTZ001>011-023>025-192000-

NORTHERN UTAH

CITY           SKY/WX    TMP DP  RH WIND       PRES   REMARKS
BRIGHAM CITY   CLOUDY    42  28  58 SW7       30.18F
HILL AFB       PTSUNNY   42  26  54 S16       30.16F
LOGAN          CLOUDY    39  29  67 NW3       30.16F
OGDEN          CLOUDY    43  28  55 S14       30.16F
PROVO AIRPORT  SUNNY     39  28  65 SE7       30.20F WCI  34
SALT LAKE CITY MOSUNNY   42  28  57 S13       30.17F
VERNAL         CLOUDY    29  21  72 CALM      30.25F
WENDOVER       PTSUNNY   36  27  69 SE3       30.17F
HEBER CITY     SUNNY     32  25  74 CALM      30.18F
WEST JORDAN    MOSUNNY   39  32  75 S13       30.17F WCI  32

$$

UTZ012>022-026-027-192000-

SOUTHERN/CENTRAL UTAH

CITY           SKY/WX    TMP DP  RH WIND       PRES   REMARKS
BLANDING       MOSUNNY   36  28  71 CALM      30.31F
BRYCE CANYON   MOSUNNY   33  18  53 S7        30.20F WCI  27
CEDAR CITY     PTSUNNY   40  27  59 S13       30.19F WCI  32
DELTA          MOSUNNY   38  26  61 W6        30.18F WCI  34
MILFORD        MOSUNNY   40  26  57 SW20      30.17F WCI  30
MOAB/CYNLANDS  PTSUNNY   37  33  85 NW6       30.25F WCI  32
PRICE          PTSUNNY   31  23  72 SE9       30.22F WCI  23
ST GEORGE      CLEAR     43  34  70 NW6       30.29F
KANAB          MOSUNNY   37  30  75 CALM      30.28F

$$

REGIONAL REPORTS     COLORADO/ARIZONA

CITY           SKY/WX    TMP DP  RH WIND       PRES   REMARKS
CRAIG, CO      MOSUNNY   27  22  81 E3        30.22F
GRAND JUNCTION MOSUNNY   35  29  78 CALM      30.26F
RIFLE          CLOUDY    32  28  85 W6        30.25F WCI  26
MONTROSE       MOSUNNY   38  23  55 VRB3      30.26F
CORTEZ         SUNNY     36  24  62 CALM      30.23F
PAGE, AZ       MOSUNNY   41  30  65 CALM      30.25F
GRAND CANYON   MOSUNNY   40  22  48 SW3       30.23F
KINGMAN        PTSUNNY   49  37  63 CALM      30.22F
FLAGSTAFF      SUNNY     35  26  69 E7        30.23F WCI  29

$$

REGIONAL REPORTS    NEVADA/IDAHO/WYOMING

CITY           SKY/WX    TMP DP  RH WIND       PRES   REMARKS
LAS VEGAS, NV  MOSUNNY   51  37  58 S3        30.21F
ELY            SUNNY     38  24  57 SW5       30.17F WCI  34
ELKO           MOSUNNY   42  28  57 CALM      30.11F
POCATELLO, ID  CLOUDY    41  29  62 S16G25    30.09F
BURLEY         CLOUDY    43  27  53 S21G28    30.06F
EVANSTON, WY   CLOUDY    32  21  64 SW14      30.12F WCI  22
ROCK SPRINGS   MOSUNNY   31  19  61 SW14      30.11F WCI  21
KEMMERER       CLOUDY    32  23  69 W13       30.12F WCI  22

$$


USA.gov is the U.S. government's official web portal to all federal, state and local government web resources and services.